sat.trackr.live / text

‹ back to catalog

STARLINK-11461 [DTC]

NORAD 62421 · 2024-249N

PAYLOAD ACTIVE UNKNOWN

§ Identity

Operator
Country
US
Launch date
2024-12-23
Launch site
AFETR
Launch vehicle
Mass (kg)
RCS (m²)

Purposes: comms

External: N2YO · Heavens-Above · Gunter

§ Orbital elements

Epoch: 2026-09-21T04:04:37.024608Z

Period
91.67 min
Inclination
42.9997°
Eccentricity
0.0001233
Mean motion
15.70843730 rev/d
Perigee alt
355.7 km
Apogee alt
357.3 km
Semi-major
6,734.6 km
B*
9.4901e-4
RAAN
69.4492°
Arg perigee
262.9592°
Mean anomaly
97.1135°
Rev number
10,022

§ Raw data

STARLINK-11461 [DTC]1 62421U 24249N   26264.16987297  .00123161  00000+0  94901-3 0  99942 62421  42.9997  69.4492 0001233 262.9592  97.1135 15.70843730100224

JSON: /api/v1/satellites/62421 · /tle

For live sub-satellite position, see the globe view (requires WebGL).

§ Visibility from observer

Set your observer location to see the next 7 days of passes ≥ 10°. The values pass through the URL so the page stays shareable.

No JS? Fill the form by hand. The geolocation button needs JavaScript.